Weather History for Joplin, MO

Change the Weather History Date:

Thursday, April 25, 2013

  Actual Average Record
Temperature  
Mean Temperature 51 °F 61 °F  
Max Temperature 68 °F 73 °F 87 °F (1949)
Min Temperature 34 °F 50 °F 31 °F (1976)
Degree Days  
Heating Degree Days 14 6  
Month to date heating degree days 303 217  
Since 1 July heating degree days 4076 3979  
Cooling Degree Days 0 2  
Month to date cooling degree days 14 34  
Year to date cooling degree days 15 44  
Moisture  
Dew Point 32 °F    
Average Humidity 51    
Maximum Humidity 76    
Minimum Humidity 26    
Precipitation  
Precipitation T in 0.18 in 3.45 in (1999)
Month to date precipitation 4.27 3.56  
Year to date precipitation 12.12 11.33  
Snow  
Snow 0.00 in - - ()
Month to date snowfall T  
Snow Depth 0.00 in    
Sea Level Pressure  
Sea Level Pressure 30.29 in    
Wind  
Wind Speed 6 mph (South)    
Max Wind Speed 21 mph    
Max Gust Speed 26 mph    
Visibility 10 miles    
Events Rain    
T = Trace of Precipitation, MM = Missing Value Source: NWS Daily Summary

Daily Weather History Graph

Daily Weather History Graph

Search for Another Location

Airport:

Trip Planner

Search our weather history database for the weather conditions in past years. The results will help you decide how hot, cold, wet, or windy it might be!

Date:

Astronomy

Apr. 25, 2013 Rise Set
Actual Time 6:30 AM CDT 8:02 PM CDT
Civil Twilight 6:02 AM CDT 8:29 PM CDT
Nautical Twilight 5:29 AM CDT 9:02 PM CDT
Astronomical Twilight 4:54 AM CDT 9:37 PM CDT
Moon 8:15 PM CDT (4/25) 6:13 AM CDT (4/25)
Length of Visible Light 14h 27m
Length of Day
13h 32m
Full, 100% of the Moon is Illuminated
Apr 25
Full
Apr 25
Full
May 2
Last Quarter
May 9
New
May 17
First Quarter

Hourly Weather History & Observations

Time (CDT) Temp. Windchill Dew Point Humidity Pressure Visibility Wind Dir Wind Speed Gust Speed Precip Events Conditions
12:53 AM 39.0 °F 33.4 °F 30.9 °F 73% 30.31 in 10.0 mi South 8.1 mph - N/A   Clear
1:53 AM 37.0 °F 31.6 °F 30.0 °F 76% 30.31 in 10.0 mi South 6.9 mph - N/A   Clear
2:53 AM 37.0 °F 32.4 °F 28.0 °F 70% 30.29 in 10.0 mi South 5.8 mph - N/A   Clear
4:53 AM 35.1 °F 31.0 °F 28.0 °F 76% 30.32 in 10.0 mi SSW 4.6 mph - N/A   Clear
5:53 AM 37.0 °F 32.4 °F 28.0 °F 70% 30.33 in 10.0 mi SSW 5.8 mph - N/A   Clear
6:53 AM 36.0 °F 32.1 °F 28.0 °F 73% 30.33 in 10.0 mi South 4.6 mph - N/A   Clear
7:53 AM 43.0 °F 37.7 °F 32.0 °F 65% 30.35 in 10.0 mi SSW 9.2 mph - N/A   Clear
8:53 AM 50.0 °F - 30.9 °F 48% 30.38 in 10.0 mi WSW 6.9 mph - N/A   Clear
9:53 AM 53.1 °F - 32.0 °F 45% 30.37 in 10.0 mi WSW 8.1 mph - N/A   Clear
10:53 AM 57.0 °F - 35.1 °F 44% 30.38 in 10.0 mi SW 6.9 mph - N/A   Clear
11:53 AM 60.1 °F - 34.0 °F 38% 30.37 in 10.0 mi West 9.2 mph - N/A   Clear
12:53 PM 62.1 °F - 33.1 °F 34% 30.34 in 10.0 mi Calm Calm - N/A   Clear
1:53 PM 63.0 °F - 32.0 °F 31% 30.32 in 10.0 mi SW 3.5 mph - N/A   Clear
2:53 PM 66.0 °F - 33.1 °F 29% 30.30 in 10.0 mi South 8.1 mph - N/A   Clear
3:53 PM 66.9 °F - 30.9 °F 26% 30.27 in 10.0 mi Calm Calm - N/A   Clear
4:53 PM 66.9 °F - 32.0 °F 27% 30.25 in 10.0 mi South 8.1 mph - N/A   Clear
5:53 PM 66.0 °F - 30.9 °F 27% 30.24 in 10.0 mi South 5.8 mph - N/A   Clear
6:53 PM 64.0 °F - 35.1 °F 34% 30.22 in 10.0 mi Variable 4.6 mph - N/A   Clear
7:53 PM 63.0 °F - 35.1 °F 35% 30.21 in 10.0 mi SE 3.5 mph - N/A   Clear
8:53 PM 61.0 °F - 37.0 °F 41% 30.21 in 10.0 mi ESE 3.5 mph - N/A   Clear
9:53 PM 61.0 °F - 39.0 °F 44% 30.22 in 10.0 mi SE 8.1 mph - 0.00 in Rain Light Rain
10:53 PM 59.0 °F - 37.0 °F 44% 30.20 in 10.0 mi SSE 5.8 mph - N/A   Partly Cloudy
11:53 PM 61.0 °F - 33.1 °F 35% 30.17 in 10.0 mi SSE 11.5 mph - N/A   Mostly Cloudy